TimeEST,TemperatureF,Dew PointF,Humidity,Sea Level PressureIn,VisibilityMPH,Wind Direction,Wind SpeedMPH,Gust SpeedMPH,PrecipitationIn,Events,Conditions,WindDirDegrees,DateUTC
12:37 AM,46.9,43.0,86,30.19,6.0,NNW,12.7,-,0.02,Rain,Light Rain,340,2013-11-12 05:37:00
12:54 AM,46.9,44.1,90,30.20,7.0,North,13.8,20.7,0.02,Rain,Light Rain,350,2013-11-12 05:54:00
1:21 AM,44.1,39.9,85,30.21,10.0,North,17.3,-,0.01,Rain,Light Rain,360,2013-11-12 06:21:00
1:36 AM,42.1,39.0,89,30.21,10.0,North,17.3,28.8,0.01,Rain,Light Rain,350,2013-11-12 06:36:00
1:54 AM,39.9,37.9,93,30.23,5.0,North,19.6,26.5,0.01,Rain,Rain,350,2013-11-12 06:54:00
2:29 AM,39.0,36.0,89,30.25,10.0,North,12.7,-,0.01,Rain,Light Rain,360,2013-11-12 07:29:00
2:36 AM,37.9,36.0,93,30.25,8.0,North,18.4,-,0.01,Rain,Light Rain,350,2013-11-12 07:36:00
2:54 AM,36.0,33.1,89,30.27,6.0,North,18.4,27.6,0.02,Snow,Light Snow,350,2013-11-12 07:54:00
3:29 AM,34.0,30.9,89,30.29,6.0,North,20.7,27.6,0.01,Snow,Light Snow,360,2013-11-12 08:29:00
3:37 AM,34.0,30.9,89,30.29,6.0,North,16.1,25.3,0.01,Snow,Light Snow,360,2013-11-12 08:37:00
3:54 AM,34.0,30.9,89,30.30,2.5,North,15.0,26.5,0.01,Snow,Light Snow,360,2013-11-12 08:54:00
4:07 AM,33.1,30.9,92,30.30,2.0,North,12.7,23.0,0.01,Snow,Light Snow,360,2013-11-12 09:07:00
4:15 AM,33.1,30.9,92,30.31,1.5,North,13.8,21.9,0.01,Snow,Light Snow,360,2013-11-12 09:15:00
4:26 AM,33.1,30.9,92,30.31,2.0,North,13.8,-,0.01,Snow,Light Snow,360,2013-11-12 09:26:00
4:36 AM,33.1,30.0,89,30.31,3.0,North,16.1,-,0.02,Snow,Light Snow,360,2013-11-12 09:36:00
4:54 AM,33.1,30.9,92,30.33,3.0,North,15.0,-,0.02,Snow,Light Snow,360,2013-11-12 09:54:00
5:54 AM,32.0,28.9,88,30.38,3.0,North,19.6,26.5,0.00,Snow,Light Snow,360,2013-11-12 10:54:00
5:58 AM,32.0,28.9,88,30.36,3.0,North,15.0,-,0.00,Snow,Light Snow,360,2013-11-12 10:58:00
6:05 AM,32.0,28.9,88,30.37,2.5,North,13.8,-,0.00,Snow,Light Snow,360,2013-11-12 11:05:00
6:16 AM,32.0,28.9,88,30.37,3.0,North,16.1,23.0,0.00,Snow,Light Snow,360,2013-11-12 11:16:00
6:54 AM,30.9,28.0,89,30.41,10.0,North,17.3,23.0,0.00,,Overcast,360,2013-11-12 11:54:00
7:15 AM,30.9,28.0,89,30.42,2.5,North,13.8,-,0.00,Snow,Light Snow,360,2013-11-12 12:15:00
7:26 AM,30.9,28.0,89,30.42,4.0,North,15.0,-,0.00,Snow,Light Snow,360,2013-11-12 12:26:00
7:34 AM,30.9,27.0,85,30.42,9.0,North,19.6,24.2,0.00,,Overcast,360,2013-11-12 12:34:00
7:54 AM,30.9,25.0,79,30.45,10.0,North,17.3,25.3,0.00,,Overcast,360,2013-11-12 12:54:00
8:10 AM,30.0,24.1,79,30.46,10.0,North,17.3,-,N/A,,Mostly Cloudy,360,2013-11-12 13:10:00
8:21 AM,30.0,23.0,75,30.46,10.0,North,19.6,27.6,N/A,,Partly Cloudy,10,2013-11-12 13:21:00
8:54 AM,30.0,21.9,72,30.50,10.0,North,13.8,24.2,N/A,,Partly Cloudy,10,2013-11-12 13:54:00
9:11 AM,30.0,23.0,75,30.49,10.0,North,18.4,24.2,N/A,,Mostly Cloudy,10,2013-11-12 14:11:00
9:37 AM,30.0,21.0,69,30.49,10.0,North,13.8,-,N/A,,Scattered Clouds,360,2013-11-12 14:37:00
9:54 AM,30.0,21.0,69,30.52,10.0,North,18.4,-,N/A,,Clear,10,2013-11-12 14:54:00
10:54 AM,32.0,21.0,64,30.53,10.0,North,16.1,24.2,N/A,,Partly Cloudy,10,2013-11-12 15:54:00
11:54 AM,34.0,21.0,59,30.53,10.0,North,16.1,23.0,N/A,,Partly Cloudy,350,2013-11-12 16:54:00
12:54 PM,35.1,17.1,48,30.52,10.0,North,15.0,24.2,N/A,,Clear,350,2013-11-12 17:54:00
1:54 PM,37.0,19.0,48,30.53,10.0,NNW,16.1,21.9,N/A,,Partly Cloudy,330,2013-11-12 18:54:00
2:54 PM,37.0,18.0,46,30.54,10.0,North,19.6,23.0,N/A,,Partly Cloudy,350,2013-11-12 19:54:00
3:54 PM,36.0,16.0,44,30.56,10.0,North,17.3,24.2,N/A,,Clear,360,2013-11-12 20:54:00
4:54 PM,34.0,16.0,48,30.57,10.0,North,13.8,-,N/A,,Clear,10,2013-11-12 21:54:00
5:54 PM,30.9,16.0,54,30.59,10.0,North,8.1,-,N/A,,Clear,360,2013-11-12 22:54:00
6:54 PM,30.0,17.1,59,30.61,10.0,North,4.6,-,N/A,,Clear,360,2013-11-12 23:54:00
7:54 PM,28.9,17.1,61,30.61,10.0,North,4.6,-,N/A,,Clear,350,2013-11-13 00:54:00
8:54 PM,28.9,17.1,61,30.62,10.0,North,4.6,-,N/A,,Clear,360,2013-11-13 01:54:00
9:54 PM,27.0,17.1,66,30.64,10.0,Calm,Calm,-,N/A,,Clear,0,2013-11-13 02:54:00
10:54 PM,26.1,17.1,69,30.64,10.0,Calm,Calm,-,N/A,,Clear,0,2013-11-13 03:54:00
11:54 PM,26.1,18.0,71,30.64,10.0,NW,3.5,-,N/A,,Clear,320,2013-11-13 04:54:00